CHB6436 ZSHC-ZUCK

Flight info

Callsign CHB6436
Flight time N/A
Altitude 32100
Route K0854S1100 NIV92D NIVIK W135 DOGVI W545 VEMEX W73 MADUK W51 LEGIV W164 ADGOL W50 XSH W80 IRPOG IRPOG2H
Aircraft A320/M-SDE3FGHIRWY/LB1

Departure

Time 2026-04-28 10:46
Airport Hangzhou Xiaoshan International Airport (ZSHC)

Arrival

Time N/A
Airport Chongqing Jiangbei International Airport (ZUCK)
Time Latitude Longitude Altitude Speed Heading
2026-04-28 10:45 30.20276 120.69446 12172 ft 281 kts 194°
2026-04-28 10:46 30.18489 120.68626 12802 ft 277 kts 218°
2026-04-28 10:46 30.17170 120.67029 13446 ft 277 kts 240°
2026-04-28 10:46 30.16272 120.65052 14088 ft 279 kts 243°
2026-04-28 10:46 30.15393 120.63045 14661 ft 281 kts 243°
2026-04-28 10:47 30.14506 120.61014 15215 ft 285 kts 243°
2026-04-28 10:47 30.13606 120.58961 15771 ft 288 kts 243°
2026-04-28 10:47 30.12692 120.56885 16320 ft 292 kts 243°
2026-04-28 10:47 30.11764 120.54785 16873 ft 295 kts 242°
2026-04-28 10:48 30.10824 120.52664 17401 ft 299 kts 242°
2026-04-28 10:48 30.09872 120.50516 17936 ft 302 kts 242°
2026-04-28 10:48 30.08907 120.48347 18452 ft 305 kts 242°
2026-04-28 10:48 30.07931 120.46155 18912 ft 308 kts 242°
2026-04-28 10:49 30.06963 120.43983 19394 ft 309 kts 242°
2026-04-28 10:49 30.05975 120.41767 19889 ft 311 kts 242°
2026-04-28 10:49 30.04984 120.39541 20393 ft 312 kts 243°
2026-04-28 10:49 30.03986 120.37298 20709 ft 320 kts 243°
2026-04-28 10:50 30.02946 120.34965 20835 ft 333 kts 243°
2026-04-28 10:50 30.02221 120.33341 20921 ft 341 kts 243°
2026-04-28 10:50 30.00745 120.30046 21076 ft 357 kts 243°
2026-04-28 10:50 29.99574 120.27425 21226 ft 368 kts 243°
2026-04-28 10:51 29.98380 120.24805 21333 ft 379 kts 242°
2026-04-28 10:51 29.97128 120.22133 21456 ft 389 kts 242°
2026-04-28 10:51 29.95815 120.19370 21573 ft 397 kts 242°
2026-04-28 10:51 29.94469 120.16551 21677 ft 406 kts 241°
2026-04-28 10:52 29.93093 120.13672 21808 ft 414 kts 242°
2026-04-28 10:52 29.91694 120.10743 21948 ft 421 kts 242°
2026-04-28 10:52 29.90274 120.07763 22063 ft 427 kts 242°
2026-04-28 10:52 29.88842 120.04747 22269 ft 431 kts 243°
2026-04-28 10:53 29.87403 120.01713 22598 ft 431 kts 243°
2026-04-28 10:53 29.85964 119.98684 22988 ft 431 kts 243°
2026-04-28 10:53 29.84367 119.95764 23356 ft 432 kts 234°
2026-04-28 10:53 29.82484 119.93066 23741 ft 432 kts 233°
2026-04-28 10:54 29.80598 119.90388 24069 ft 430 kts 233°
2026-04-28 10:54 29.78714 119.87712 24401 ft 429 kts 233°
2026-04-28 10:54 29.76833 119.85040 24721 ft 429 kts 233°
2026-04-28 10:54 29.74955 119.82371 25074 ft 429 kts 233°
2026-04-28 10:55 29.73077 119.79704 25421 ft 428 kts 233°
2026-04-28 10:55 29.71202 119.77046 25812 ft 427 kts 233°
2026-04-28 10:55 29.69332 119.74394 26165 ft 427 kts 233°
2026-04-28 10:55 29.67471 119.71756 26579 ft 425 kts 233°
2026-04-28 10:56 29.65651 119.69084 26974 ft 422 kts 238°
2026-04-28 10:56 29.64237 119.66157 27372 ft 418 kts 248°
2026-04-28 10:56 29.63329 119.62992 27788 ft 416 kts 258°
2026-04-28 10:56 29.62939 119.59708 28227 ft 414 kts 267°
2026-04-28 10:57 29.62978 119.56404 28660 ft 414 kts 271°
2026-04-28 10:57 29.63064 119.53106 29149 ft 412 kts 271°
2026-04-28 10:57 29.63148 119.49828 29681 ft 409 kts 270°
2026-04-28 10:57 29.63253 119.46573 30151 ft 407 kts 272°
2026-04-28 10:58 29.63413 119.43338 30499 ft 404 kts 272°
2026-04-28 10:58 29.63608 119.40128 30981 ft 401 kts 273°
2026-04-28 10:58 29.63815 119.36943 31449 ft 398 kts 273°
2026-04-28 10:58 29.63964 119.33762 31719 ft 400 kts 268°
2026-04-28 10:59 29.63817 119.31641 31796 ft 403 kts 262°
2026-04-28 10:59 29.63582 119.30270 31923 ft 404 kts 257°
2026-04-28 11:00 29.62276 119.26021 32047 ft 414 kts 250°
2026-04-28 11:00 29.60319 119.20432 32042 ft 424 kts 250°
2026-04-28 11:01 29.58476 119.15171 32037 ft 426 kts 250°
2026-04-28 11:01 29.56623 119.09873 32029 ft 426 kts 250°
2026-04-28 11:02 29.54426 119.03591 32029 ft 427 kts 250°
2026-04-28 11:02 29.52216 118.97269 32024 ft 427 kts 250°
2026-04-28 11:03 29.50005 118.90952 32013 ft 426 kts 250°
2026-04-28 11:03 29.47775 118.84636 32022 ft 427 kts 250°
2026-04-28 11:04 29.45520 118.78324 32020 ft 427 kts 249°
2026-04-28 11:04 29.43262 118.72020 32012 ft 427 kts 249°
2026-04-28 11:05 29.41008 118.65719 32013 ft 427 kts 249°
2026-04-28 11:05 29.38756 118.59428 32002 ft 426 kts 249°
2026-04-28 11:06 29.36502 118.53144 32001 ft 426 kts 249°
2026-04-28 11:06 29.34243 118.46855 31996 ft 428 kts 249°
2026-04-28 11:07 29.31979 118.40594 31989 ft 428 kts 249°
2026-04-28 11:07 29.29701 118.34291 31987 ft 428 kts 249°
2026-04-28 11:08 29.27429 118.27988 31975 ft 428 kts 249°
2026-04-28 11:08 29.25156 118.21689 31975 ft 428 kts 249°
2026-04-28 11:09 29.22875 118.15391 31960 ft 428 kts 249°
2026-04-28 11:09 29.20601 118.09087 31960 ft 428 kts 249°
2026-04-28 11:10 29.18355 118.02733 31953 ft 433 kts 248°
2026-04-28 11:10 29.16090 117.96333 31950 ft 434 kts 248°
2026-04-28 11:11 29.13814 117.89931 31950 ft 435 kts 248°
2026-04-28 11:11 29.11527 117.83530 31950 ft 435 kts 248°
2026-04-28 11:12 29.09240 117.77136 31938 ft 435 kts 248°
2026-04-28 11:12 29.06974 117.70776 31928 ft 434 kts 248°
2026-04-28 11:13 29.04686 117.64384 31934 ft 434 kts 248°
2026-04-28 11:13 29.02379 117.57998 31923 ft 435 kts 248°
2026-04-28 11:13 29.01485 117.54709 31924 ft 435 kts 260°
2026-04-28 11:14 29.01359 117.51258 31932 ft 438 kts 274°
2026-04-28 11:14 29.02046 117.47863 31924 ft 443 kts 288°
2026-04-28 11:14 29.03527 117.44748 31924 ft 452 kts 302°
2026-04-28 11:14 29.05743 117.42148 31924 ft 463 kts 316°
2026-04-28 11:15 29.08321 117.39922 31925 ft 465 kts 317°
2026-04-28 11:15 29.13506 117.35483 31929 ft 466 kts 317°
2026-04-28 11:16 29.18694 117.31036 31928 ft 466 kts 317°
2026-04-28 11:16 29.23867 117.26569 31933 ft 465 kts 317°
2026-04-28 11:17 29.29030 117.22099 31933 ft 465 kts 317°
2026-04-28 11:17 29.34012 117.17425 31933 ft 458 kts 308°
2026-04-28 11:18 29.37760 117.11631 31944 ft 451 kts 298°
2026-04-28 11:18 29.41241 117.05634 31945 ft 451 kts 298°
2026-04-28 11:19 29.44723 116.99649 31941 ft 450 kts 298°
2026-04-28 11:19 29.48192 116.93656 31947 ft 450 kts 298°
2026-04-28 11:20 29.51628 116.87711 31953 ft 450 kts 298°
2026-04-28 11:20 29.55088 116.81716 31961 ft 450 kts 298°
2026-04-28 11:21 29.58546 116.75726 31957 ft 450 kts 298°
2026-04-28 11:21 29.62005 116.69730 31966 ft 450 kts 298°
2026-04-28 11:22 29.65458 116.63738 31967 ft 450 kts 298°
2026-04-28 11:22 29.68911 116.57743 31986 ft 450 kts 298°
2026-04-28 11:23 29.72364 116.51729 31987 ft 451 kts 298°
2026-04-28 11:23 29.75827 116.45697 31997 ft 452 kts 298°
2026-04-28 11:24 29.79289 116.39654 31995 ft 452 kts 298°
2026-04-28 11:24 29.82741 116.33605 32005 ft 452 kts 298°
2026-04-28 11:25 29.86191 116.27548 32014 ft 452 kts 298°
2026-04-28 11:25 29.89653 116.21476 32017 ft 454 kts 297°
2026-04-28 11:26 29.93127 116.15392 32020 ft 454 kts 297°
2026-04-28 11:26 29.96565 116.09343 32024 ft 454 kts 297°
2026-04-28 11:27 30.00028 116.03241 32024 ft 454 kts 297°
2026-04-28 11:27 30.03493 115.97145 32029 ft 454 kts 297°
2026-04-28 11:28 30.06953 115.91027 32028 ft 456 kts 297°
2026-04-28 11:28 30.10435 115.84897 32026 ft 457 kts 297°
2026-04-28 11:29 30.13941 115.78772 32023 ft 456 kts 297°
2026-04-28 11:29 30.17440 115.72653 32028 ft 457 kts 298°
2026-04-28 11:30 30.20941 115.66519 32032 ft 457 kts 297°
2026-04-28 11:30 30.26187 115.57294 32046 ft 458 kts 297°
2026-04-28 11:31 30.29677 115.51136 32035 ft 457 kts 297°
2026-04-28 11:31 30.33160 115.44972 32035 ft 457 kts 297°
2026-04-28 11:32 30.36647 115.38814 32039 ft 458 kts 297°
2026-04-28 11:32 30.40135 115.32646 32038 ft 458 kts 297°
2026-04-28 11:33 30.43116 115.26220 32063 ft 447 kts 283°
2026-04-28 11:33 30.44279 115.19244 32071 ft 440 kts 272°
2026-04-28 11:34 30.45006 115.12207 32077 ft 440 kts 272°
2026-04-28 11:34 30.45739 115.05214 32080 ft 440 kts 272°
2026-04-28 11:35 30.46472 114.98179 32077 ft 439 kts 272°
2026-04-28 11:35 30.47189 114.91157 32074 ft 438 kts 272°
2026-04-28 11:36 30.47902 114.84138 32067 ft 438 kts 272°
2026-04-28 11:36 30.48620 114.77116 32060 ft 438 kts 272°
2026-04-28 11:37 30.49328 114.70097 32054 ft 438 kts 272°
2026-04-28 11:37 30.50027 114.63069 32051 ft 438 kts 272°
2026-04-28 11:38 30.50725 114.56049 32046 ft 438 kts 272°
2026-04-28 11:38 30.51425 114.49020 32051 ft 438 kts 272°
2026-04-28 11:39 30.52118 114.41996 32054 ft 438 kts 272°
2026-04-28 11:39 30.52805 114.34974 32054 ft 437 kts 271°
2026-04-28 11:40 30.53487 114.27981 32057 ft 436 kts 271°
2026-04-28 11:40 30.54166 114.20985 32057 ft 436 kts 271°
2026-04-28 11:41 30.54832 114.14041 32057 ft 436 kts 271°
2026-04-28 11:41 30.55493 114.07032 32059 ft 440 kts 271°
2026-04-28 11:42 30.56170 113.99982 32063 ft 439 kts 271°
2026-04-28 11:42 30.56838 113.92937 32064 ft 439 kts 271°
2026-04-28 11:43 30.57485 113.85894 32074 ft 439 kts 271°
2026-04-28 11:43 30.57571 113.78874 32073 ft 434 kts 264°
2026-04-28 11:44 30.57312 113.71881 32073 ft 433 kts 263°
2026-04-28 11:44 30.57056 113.64908 32073 ft 432 kts 263°
2026-04-28 11:45 30.56791 113.57942 32079 ft 432 kts 263°
2026-04-28 11:45 30.56523 113.50982 32079 ft 432 kts 263°
2026-04-28 11:46 30.56255 113.44018 32084 ft 432 kts 263°
2026-04-28 11:46 30.55976 113.37073 32086 ft 430 kts 263°
2026-04-28 11:47 30.55744 113.31308 32089 ft 430 kts 263°
2026-04-28 11:47 30.55466 113.24374 32084 ft 430 kts 263°
2026-04-28 11:48 30.55182 113.17449 32079 ft 430 kts 263°
2026-04-28 11:48 30.54898 113.10519 32103 ft 430 kts 263°
2026-04-28 11:49 30.54611 113.03593 32094 ft 430 kts 263°
2026-04-28 11:49 30.54320 112.96664 32103 ft 430 kts 263°
2026-04-28 11:50 30.54022 112.89743 32101 ft 430 kts 263°
2026-04-28 11:50 30.53729 112.82819 32103 ft 430 kts 263°
2026-04-28 11:51 30.53428 112.75882 32105 ft 431 kts 263°
2026-04-28 11:51 30.53112 112.68936 32107 ft 431 kts 263°
2026-04-28 11:52 30.52798 112.61981 32109 ft 432 kts 263°
2026-04-28 11:52 30.52483 112.55076 32114 ft 431 kts 263°
2026-04-28 11:53 30.52166 112.48125 32115 ft 432 kts 263°
2026-04-28 11:53 30.51851 112.41167 32107 ft 432 kts 263°
2026-04-28 11:54 30.51524 112.34190 32104 ft 433 kts 263°
2026-04-28 11:54 30.51193 112.27220 32115 ft 433 kts 263°
2026-04-28 11:55 30.50851 112.20251 32125 ft 433 kts 263°
2026-04-28 11:55 30.50509 112.13280 32124 ft 433 kts 263°
2026-04-28 11:56 30.50171 112.06300 32123 ft 434 kts 263°
2026-04-28 11:56 30.49825 111.99320 32128 ft 434 kts 263°
2026-04-28 11:57 30.49477 111.92341 32138 ft 434 kts 263°
2026-04-28 11:57 30.49119 111.85355 32132 ft 434 kts 263°
2026-04-28 11:58 30.48763 111.78418 32146 ft 434 kts 263°
2026-04-28 11:58 30.48523 111.73745 32137 ft 434 kts 263°